ASTRA 4A

Last updated on Sun Jun 21 2026 00:03:04 GMT+0000 (Coordinated Universal Time)

1 32299U 07057A 26171.39293715 .00000028 00000+0 00000+0 0 9998 2 32299 0.0127 340.0552 0002413 112.4942 322.3133 1.00273096 51673
UTC large
Height (km)
Speed (km/s)
/
Latitude / Longitude
Inclination (degrees)
Orbital Period (minutes)
Azimuth
Elevation
Range (km)
Doppler Factor

Next 0 passes for location: London (51.5072 / 0.1276)

No passes found over London.
ASTRA 4A